IBE05ZK LEMD-LPMA

Flight info

Callsign IBE05ZK
Flight time N/A
Altitude 36000
Route CCS DCT ELVAR DCT NARTA DCT RAKUN
Aircraft A320/M-SDE3FGHIRWY/LB1

Departure

Time 2026-05-06 13:46
Airport Adolfo Suárez Madrid–Barajas Airport (LEMD)

Arrival

Time N/A
Airport Cristiano Ronaldo International Airport (LPMA)
Time Latitude Longitude Altitude Speed Heading
2026-05-06 13:33 40.48965 -3.58963 2022 ft 0 kts 270°
2026-05-06 13:38 40.48965 -3.58954 2032 ft 2 kts 270°
2026-05-06 13:38 40.48965 -3.58931 2025 ft 2 kts 270°
2026-05-06 13:39 40.48965 -3.58909 2029 ft 2 kts 254°
2026-05-06 13:39 40.48970 -3.58887 2031 ft 2 kts 229°
2026-05-06 13:39 40.48983 -3.58874 2031 ft 2 kts 188°
2026-05-06 13:39 40.48985 -3.58873 2031 ft 0 kts 188°
2026-05-06 13:42 40.48958 -3.58840 2027 ft 11 kts 91°
2026-05-06 13:42 40.49053 -3.58813 2024 ft 17 kts
2026-05-06 13:43 40.49204 -3.58809 2022 ft 21 kts 17°
2026-05-06 13:43 40.49240 -3.58707 2024 ft 20 kts 88°
2026-05-06 13:43 40.49242 -3.58517 2018 ft 23 kts 90°
2026-05-06 13:43 40.49242 -3.58279 2007 ft 29 kts 90°
2026-05-06 13:44 40.49242 -3.58021 2002 ft 28 kts 90°
2026-05-06 13:44 40.49243 -3.57814 1994 ft 23 kts 89°
2026-05-06 13:44 40.49253 -3.57608 1987 ft 19 kts 76°
2026-05-06 13:44 40.49342 -3.57471 1984 ft 22 kts 30°
2026-05-06 13:45 40.49459 -3.57446 1983 ft 11 kts 359°
2026-05-06 13:45 40.50041 -3.57458 1987 ft 100 kts 360°
2026-05-06 13:45 40.50932 -3.57467 1996 ft 153 kts 360°
2026-05-06 13:46 40.52125 -3.57476 2214 ft 176 kts 358°
2026-05-06 13:46 40.53325 -3.57487 2972 ft 171 kts 360°
2026-05-06 13:46 40.54507 -3.57488 3629 ft 171 kts
2026-05-06 13:46 40.55725 -3.57704 4004 ft 184 kts 333°
2026-05-06 13:47 40.56645 -3.58911 4306 ft 199 kts 292°
2026-05-06 13:47 40.57166 -3.60679 4578 ft 217 kts 295°
2026-05-06 13:47 40.58112 -3.62324 5013 ft 230 kts 317°
2026-05-06 13:47 40.59371 -3.63626 5792 ft 229 kts 323°
2026-05-06 13:48 40.60682 -3.64840 6486 ft 232 kts 325°
2026-05-06 13:48 40.62014 -3.66059 7157 ft 234 kts 324°
2026-05-06 13:48 40.63188 -3.67509 7822 ft 235 kts 305°
2026-05-06 13:48 40.63892 -3.69450 8502 ft 238 kts 283°
2026-05-06 13:49 40.64012 -3.71705 8850 ft 258 kts 266°
2026-05-06 13:49 40.63913 -3.74168 9203 ft 278 kts 268°
2026-05-06 13:49 40.63864 -3.76754 9865 ft 285 kts 269°
2026-05-06 13:49 40.63835 -3.79416 10295 ft 301 kts 269°
2026-05-06 13:50 40.63807 -3.82286 10479 ft 324 kts 269°
2026-05-06 13:50 40.63774 -3.85363 10629 ft 347 kts 269°
2026-05-06 13:50 40.63732 -3.88597 11040 ft 358 kts 268°
2026-05-06 13:50 40.63680 -3.91895 11673 ft 363 kts 268°
2026-05-06 13:51 40.63622 -3.95239 12328 ft 367 kts 268°
2026-05-06 13:51 40.63560 -3.98582 12984 ft 371 kts 268°
2026-05-06 13:51 40.63499 -4.02000 13636 ft 374 kts 268°
2026-05-06 13:51 40.63441 -4.05428 14232 ft 378 kts 268°
2026-05-06 13:52 40.63382 -4.08891 14832 ft 380 kts 268°
2026-05-06 13:52 40.63323 -4.12386 15445 ft 381 kts 268°
2026-05-06 13:52 40.63261 -4.15882 16053 ft 383 kts 268°
2026-05-06 13:52 40.63196 -4.19398 16641 ft 385 kts 268°
2026-05-06 13:53 40.63126 -4.22925 17230 ft 386 kts 268°
2026-05-06 13:53 40.63054 -4.26475 17806 ft 388 kts 268°
2026-05-06 13:53 40.62985 -4.29989 18354 ft 390 kts 268°
2026-05-06 13:53 40.62915 -4.33575 18848 ft 392 kts 268°
2026-05-06 13:54 40.62844 -4.37183 19343 ft 393 kts 268°
2026-05-06 13:54 40.62769 -4.40789 19836 ft 394 kts 268°
2026-05-06 13:54 40.62690 -4.44399 20323 ft 396 kts 268°
2026-05-06 13:54 40.62613 -4.48035 20811 ft 397 kts 268°
2026-05-06 13:55 40.62383 -4.51610 21263 ft 398 kts 260°
2026-05-06 13:55 40.61660 -4.55141 21736 ft 400 kts 250°
2026-05-06 13:55 40.60442 -4.58444 22186 ft 403 kts 239°
2026-05-06 13:55 40.58806 -4.61465 22615 ft 406 kts 234°
2026-05-06 13:56 40.57155 -4.64340 23037 ft 408 kts 234°
2026-05-06 13:56 40.55439 -4.67343 23464 ft 410 kts 234°
2026-05-06 13:56 40.53726 -4.70355 23830 ft 411 kts 234°
2026-05-06 13:56 40.52008 -4.73380 24184 ft 413 kts 235°
2026-05-06 13:57 40.50283 -4.76418 24547 ft 415 kts 234°
2026-05-06 13:57 40.48553 -4.79460 24895 ft 416 kts 234°
2026-05-06 13:57 40.46810 -4.82515 25243 ft 418 kts 234°
2026-05-06 13:57 40.45082 -4.85532 25567 ft 420 kts 234°
2026-05-06 13:58 40.43318 -4.88608 25883 ft 422 kts 234°
2026-05-06 13:58 40.41548 -4.91691 26205 ft 423 kts 234°
2026-05-06 13:58 40.39770 -4.94792 26520 ft 425 kts 234°
2026-05-06 13:58 40.37993 -4.97896 26798 ft 427 kts 234°
2026-05-06 13:59 40.36226 -5.00974 26920 ft 428 kts 234°
2026-05-06 13:59 40.34433 -5.04089 26966 ft 427 kts 234°
2026-05-06 13:59 40.32645 -5.07191 26960 ft 427 kts 234°
2026-05-06 13:59 40.30858 -5.10292 26947 ft 426 kts 234°
2026-05-06 14:00 40.29070 -5.13400 26961 ft 426 kts 234°
2026-05-06 14:00 40.27280 -5.16510 26963 ft 426 kts 234°
2026-05-06 14:00 40.25486 -5.19619 26957 ft 426 kts 234°
2026-05-06 14:00 40.23701 -5.22709 26956 ft 426 kts 234°
2026-05-06 14:01 40.21931 -5.25768 26941 ft 426 kts 234°
2026-05-06 14:01 40.20137 -5.28864 26942 ft 426 kts 234°
2026-05-06 14:01 40.18342 -5.31955 26945 ft 426 kts 234°
2026-05-06 14:01 40.16547 -5.35046 26940 ft 427 kts 234°
2026-05-06 14:02 40.14749 -5.38141 26939 ft 427 kts 234°
2026-05-06 14:02 40.12946 -5.41236 26937 ft 427 kts 234°
2026-05-06 14:02 40.11146 -5.44325 26945 ft 426 kts 234°
2026-05-06 14:02 40.09370 -5.47369 26945 ft 426 kts 234°
2026-05-06 14:03 40.07571 -5.50447 26942 ft 426 kts 234°
2026-05-06 14:03 40.05768 -5.53529 26942 ft 426 kts 234°
2026-05-06 14:03 40.03970 -5.56600 26942 ft 426 kts 234°
2026-05-06 14:03 40.02166 -5.59682 26942 ft 426 kts 234°
2026-05-06 14:04 40.00384 -5.62727 26942 ft 426 kts 234°
2026-05-06 14:04 39.98580 -5.65806 26940 ft 426 kts 234°
2026-05-06 14:04 39.96780 -5.68872 26938 ft 426 kts 233°
2026-05-06 14:04 39.94972 -5.71945 26938 ft 426 kts 233°
2026-05-06 14:05 39.93162 -5.75019 26935 ft 428 kts 233°
2026-05-06 14:05 39.91367 -5.78068 26935 ft 428 kts 233°
2026-05-06 14:05 39.89554 -5.81144 26931 ft 428 kts 233°
2026-05-06 14:05 39.87737 -5.84221 26918 ft 427 kts 233°
2026-05-06 14:06 39.85924 -5.87293 26930 ft 426 kts 233°
2026-05-06 14:06 39.84115 -5.90354 26928 ft 426 kts 233°
2026-05-06 14:06 39.82304 -5.93411 26928 ft 426 kts 233°
2026-05-06 14:06 39.80513 -5.96434 26927 ft 426 kts 233°
2026-05-06 14:07 39.78702 -5.99494 26929 ft 426 kts 233°
2026-05-06 14:07 39.76892 -6.02554 26928 ft 426 kts 233°
2026-05-06 14:07 39.75081 -6.05610 26928 ft 426 kts 233°
2026-05-06 14:07 39.73266 -6.08666 26929 ft 426 kts 233°
2026-05-06 14:08 39.71471 -6.11680 26928 ft 427 kts 233°
2026-05-06 14:08 39.69652 -6.14727 26928 ft 427 kts 233°
2026-05-06 14:08 39.67823 -6.17794 26931 ft 427 kts 233°
2026-05-06 14:08 39.66004 -6.20847 26931 ft 427 kts 233°
2026-05-06 14:09 39.64205 -6.23865 26931 ft 427 kts 233°
2026-05-06 14:09 39.62385 -6.26911 26927 ft 426 kts 233°
2026-05-06 14:09 39.60566 -6.29951 26931 ft 425 kts 233°
2026-05-06 14:09 39.58766 -6.32953 26933 ft 425 kts 233°
2026-05-06 14:10 39.56951 -6.35979 26931 ft 425 kts 233°
2026-05-06 14:10 39.55121 -6.39023 26931 ft 425 kts 233°
2026-05-06 14:10 39.53301 -6.42048 26941 ft 425 kts 233°
2026-05-06 14:10 39.51632 -6.45198 26939 ft 424 kts 239°
2026-05-06 14:11 39.50185 -6.48536 26937 ft 425 kts 243°
2026-05-06 14:11 39.48896 -6.51935 26932 ft 426 kts 245°
2026-05-06 14:11 39.47657 -6.55443 26938 ft 426 kts 246°
2026-05-06 14:11 39.46431 -6.58944 26938 ft 426 kts 245°
2026-05-06 14:12 39.45200 -6.62379 26937 ft 426 kts 245°
2026-05-06 14:12 39.43915 -6.65844 26938 ft 426 kts 244°
2026-05-06 14:12 39.42600 -6.69294 26939 ft 426 kts 244°
2026-05-06 14:12 39.41274 -6.72716 26940 ft 426 kts 243°
2026-05-06 14:13 39.39933 -6.76150 26938 ft 426 kts 243°
2026-05-06 14:13 39.38596 -6.79572 26940 ft 426 kts 243°
2026-05-06 14:13 39.37276 -6.82957 26931 ft 425 kts 243°
2026-05-06 14:13 39.35948 -6.86377 26941 ft 425 kts 243°
2026-05-06 14:14 39.34623 -6.89797 26940 ft 426 kts 244°
2026-05-06 14:14 39.33295 -6.93225 26940 ft 426 kts 244°
2026-05-06 14:14 39.31967 -6.96646 26938 ft 426 kts 243°
2026-05-06 14:14 39.30637 -7.00066 26940 ft 426 kts 243°
2026-05-06 14:15 39.29305 -7.03485 26942 ft 425 kts 243°
2026-05-06 14:15 39.27971 -7.06904 26944 ft 426 kts 243°
2026-05-06 14:15 39.26655 -7.10276 26943 ft 426 kts 243°
2026-05-06 14:15 39.25320 -7.13697 26939 ft 426 kts 243°
2026-05-06 14:16 39.23980 -7.17120 26939 ft 426 kts 243°
2026-05-06 14:16 39.22643 -7.20537 26940 ft 426 kts 243°
2026-05-06 14:16 39.21135 -7.23827 26938 ft 427 kts 236°
2026-05-06 14:16 39.19442 -7.26920 26942 ft 428 kts 235°
2026-05-06 14:17 39.17721 -7.30061 26942 ft 428 kts 235°
2026-05-06 14:17 39.16004 -7.33193 26941 ft 428 kts 235°
2026-05-06 14:17 39.14286 -7.36327 26944 ft 428 kts 235°
2026-05-06 14:17 39.12559 -7.39478 26946 ft 428 kts 235°
2026-05-06 14:18 39.10839 -7.42614 26934 ft 428 kts 235°
2026-05-06 14:18 39.09140 -7.45706 26944 ft 427 kts 235°
2026-05-06 14:18 39.07426 -7.48821 26946 ft 426 kts 235°
2026-05-06 14:18 39.05704 -7.51941 26948 ft 426 kts 235°
2026-05-06 14:19 39.03981 -7.55058 26942 ft 426 kts 235°
2026-05-06 14:19 39.02285 -7.58128 26945 ft 426 kts 235°
2026-05-06 14:19 39.00564 -7.61243 26948 ft 427 kts 235°
2026-05-06 14:19 38.98838 -7.64369 26953 ft 427 kts 235°
2026-05-06 14:20 38.97111 -7.67496 26950 ft 428 kts 235°
2026-05-06 14:20 38.95409 -7.70576 26946 ft 428 kts 235°
2026-05-06 14:20 38.93685 -7.73694 26948 ft 427 kts 235°
2026-05-06 14:20 38.91960 -7.76802 26948 ft 427 kts 235°
2026-05-06 14:21 38.90229 -7.79913 26947 ft 427 kts 235°
2026-05-06 14:21 38.88499 -7.83017 26953 ft 427 kts 235°
2026-05-06 14:21 38.86766 -7.86127 26947 ft 427 kts 235°
2026-05-06 14:21 38.85056 -7.89191 26940 ft 427 kts 235°
2026-05-06 14:22 38.83320 -7.92301 26946 ft 427 kts 235°
2026-05-06 14:22 38.81591 -7.95397 27096 ft 428 kts 235°
2026-05-06 14:22 38.79840 -7.98497 27407 ft 430 kts 234°
2026-05-06 14:22 38.78042 -8.01568 27704 ft 432 kts 233°
2026-05-06 14:23 38.76205 -8.04632 28007 ft 434 kts 233°
2026-05-06 14:23 38.74348 -8.07686 28300 ft 435 kts 233°
2026-05-06 14:23 38.72497 -8.10720 28573 ft 437 kts 233°
2026-05-06 14:23 38.70629 -8.13794 28960 ft 436 kts 233°
2026-05-06 14:24 38.68773 -8.16868 29391 ft 435 kts 233°
2026-05-06 14:24 38.66929 -8.19941 29812 ft 433 kts 233°
2026-05-06 14:24 38.65099 -8.23001 30193 ft 432 kts 233°
2026-05-06 14:24 38.63293 -8.26020 30522 ft 431 kts 234°
2026-05-06 14:25 38.61461 -8.29074 30845 ft 431 kts 234°
2026-05-06 14:25 38.59669 -8.32055 30935 ft 430 kts 234°
2026-05-06 14:25 38.56006 -8.38124 30957 ft 430 kts 234°
2026-05-06 14:26 38.52366 -8.44149 30957 ft 430 kts 234°
2026-05-06 14:26 38.48692 -8.50203 30958 ft 430 kts 234°
2026-05-06 14:27 38.45025 -8.56250 30957 ft 430 kts 234°
2026-05-06 14:27 38.41371 -8.62268 30957 ft 430 kts 234°
2026-05-06 14:28 38.37713 -8.68268 30968 ft 430 kts 233°
2026-05-06 14:28 38.34035 -8.74291 30964 ft 430 kts 234°
2026-05-06 14:29 38.30348 -8.80326 30958 ft 430 kts 234°
2026-05-06 14:29 38.26681 -8.86312 30967 ft 431 kts 234°
2026-05-06 14:30 38.22996 -8.92336 30977 ft 431 kts 234°
2026-05-06 14:30 38.19924 -8.97341 30989 ft 431 kts 234°
2026-05-06 14:31 38.15614 -9.04323 30990 ft 431 kts 234°
2026-05-06 14:31 38.12509 -9.09352 30996 ft 431 kts 234°
2026-05-06 14:32 38.08832 -9.15316 30997 ft 431 kts 234°
2026-05-06 14:32 38.05123 -9.21313 30997 ft 431 kts 234°
2026-05-06 14:33 38.01407 -9.27306 30998 ft 431 kts 234°
2026-05-06 14:33 37.97690 -9.33300 31007 ft 431 kts 234°
2026-05-06 14:34 37.93993 -9.39235 31008 ft 431 kts 234°
2026-05-06 14:34 37.90256 -9.45211 31007 ft 431 kts 234°
2026-05-06 14:35 37.86549 -9.51139 31013 ft 431 kts 234°
2026-05-06 14:35 37.82814 -9.57111 31016 ft 431 kts 234°
2026-05-06 14:36 37.79109 -9.63028 30996 ft 431 kts 234°
2026-05-06 14:36 37.75365 -9.68997 31006 ft 432 kts 234°
2026-05-06 14:37 37.71650 -9.74908 31009 ft 432 kts 234°
2026-05-06 14:37 37.67910 -9.80850 31009 ft 432 kts 234°
2026-05-06 14:38 37.64159 -9.86779 31014 ft 432 kts 234°
2026-05-06 14:38 37.60424 -9.92671 31018 ft 432 kts 234°
2026-05-06 14:39 37.56674 -9.98592 31022 ft 431 kts 234°
2026-05-06 14:39 37.52930 -10.04504 31024 ft 431 kts 234°
2026-05-06 14:40 37.49197 -10.10378 31013 ft 431 kts 234°
2026-05-06 14:40 37.45433 -10.16282 31019 ft 432 kts 234°
2026-05-06 14:41 37.41669 -10.22181 31015 ft 432 kts 234°
2026-05-06 14:41 37.37925 -10.28041 31031 ft 431 kts 233°
2026-05-06 14:42 37.34142 -10.33934 31037 ft 431 kts 233°
2026-05-06 14:42 37.30394 -10.39763 31037 ft 431 kts 233°
2026-05-06 14:43 37.26622 -10.45629 31039 ft 431 kts 233°
2026-05-06 14:43 37.22880 -10.51459 31026 ft 431 kts 233°
2026-05-06 14:44 37.19103 -10.57325 31031 ft 431 kts 233°
2026-05-06 14:45 37.13452 -10.66053 31025 ft 431 kts 233°
2026-05-06 14:45 37.09671 -10.71895 31031 ft 431 kts 233°
2026-05-06 14:46 37.05884 -10.77744 31036 ft 431 kts 233°
2026-05-06 14:46 37.02124 -10.83523 31038 ft 431 kts 233°
2026-05-06 14:47 36.98327 -10.89348 31047 ft 431 kts 233°
2026-05-06 14:47 36.94558 -10.95123 31024 ft 430 kts 233°
2026-05-06 14:48 36.90768 -11.00933 31030 ft 431 kts 233°
2026-05-06 14:48 36.86964 -11.06739 31025 ft 431 kts 233°
2026-05-06 14:49 36.83176 -11.12509 31027 ft 431 kts 233°
2026-05-06 14:49 36.79366 -11.18310 31046 ft 432 kts 233°
2026-05-06 14:50 36.75574 -11.24083 31040 ft 432 kts 233°
2026-05-06 14:50 36.71753 -11.29883 31040 ft 431 kts 233°
2026-05-06 14:51 36.67937 -11.35662 31014 ft 432 kts 233°
2026-05-06 14:51 36.64125 -11.41430 31039 ft 433 kts 233°
2026-05-06 14:52 36.60300 -11.47193 31036 ft 433 kts 233°
2026-05-06 14:52 36.56447 -11.52986 31039 ft 434 kts 233°
2026-05-06 14:53 36.52587 -11.58784 31039 ft 434 kts 233°
2026-05-06 14:53 36.48751 -11.64540 31043 ft 435 kts 233°
2026-05-06 14:54 36.44891 -11.70325 31045 ft 435 kts 233°
2026-05-06 14:54 36.41029 -11.76115 31050 ft 435 kts 233°
2026-05-06 14:55 36.37174 -11.81866 31048 ft 434 kts 233°
2026-05-06 14:55 36.33305 -11.87632 31055 ft 434 kts 233°
2026-05-06 14:56 36.29465 -11.93348 31064 ft 433 kts 233°
2026-05-06 14:56 36.25596 -11.99103 31062 ft 433 kts 233°
2026-05-06 14:57 36.21749 -12.04813 31046 ft 433 kts 233°
2026-05-06 14:57 36.17876 -12.10550 31040 ft 434 kts 233°
2026-05-06 14:58 36.13988 -12.16296 31042 ft 436 kts 233°
2026-05-06 14:58 36.10112 -12.22016 31037 ft 436 kts 233°
2026-05-06 14:59 36.06211 -12.27768 31046 ft 436 kts 233°
2026-05-06 14:59 36.02304 -12.33509 31049 ft 436 kts 233°
2026-05-06 15:00 35.98421 -12.39218 31053 ft 436 kts 233°
2026-05-06 15:00 35.94508 -12.44958 31042 ft 437 kts 233°
2026-05-06 15:01 35.90602 -12.50674 31044 ft 438 kts 233°
2026-05-06 15:01 35.86661 -12.56435 31046 ft 439 kts 233°
2026-05-06 15:02 35.82713 -12.62192 31042 ft 439 kts 233°
2026-05-06 15:02 35.78786 -12.67907 31055 ft 439 kts 233°
2026-05-06 15:03 35.74825 -12.73660 31056 ft 439 kts 233°
2026-05-06 15:03 35.70865 -12.79406 31045 ft 439 kts 233°
2026-05-06 15:04 35.66933 -12.85112 31046 ft 440 kts 233°
2026-05-06 15:04 35.62956 -12.90871 31050 ft 441 kts 233°
2026-05-06 15:05 35.58987 -12.96587 31061 ft 441 kts 233°
2026-05-06 15:05 35.55002 -13.02342 31061 ft 441 kts 233°
2026-05-06 15:06 35.51039 -13.08054 31048 ft 442 kts 233°
2026-05-06 15:06 35.47036 -13.13787 31043 ft 442 kts 234°
2026-05-06 15:07 35.43023 -13.19543 31050 ft 443 kts 234°
2026-05-06 15:07 35.39036 -13.25254 31056 ft 444 kts 234°
2026-05-06 15:08 35.35016 -13.31008 31065 ft 444 kts 234°
2026-05-06 15:08 35.30990 -13.36773 31068 ft 445 kts 234°
2026-05-06 15:09 35.26948 -13.42521 31057 ft 445 kts 234°
2026-05-06 15:09 35.22905 -13.48253 31062 ft 445 kts 234°
2026-05-06 15:10 35.18874 -13.53980 31047 ft 446 kts 234°
2026-05-06 15:10 35.14809 -13.59749 31055 ft 448 kts 234°
2026-05-06 15:11 35.10719 -13.65533 31062 ft 449 kts 234°
2026-05-06 15:11 35.06650 -13.71283 31067 ft 450 kts 234°
2026-05-06 15:12 35.02540 -13.77082 31074 ft 451 kts 234°
2026-05-06 15:12 34.98454 -13.82834 31081 ft 451 kts 234°
2026-05-06 15:13 34.94336 -13.88630 31068 ft 453 kts 234°
2026-05-06 15:13 34.90179 -13.94459 31081 ft 456 kts 234°
2026-05-06 15:14 34.86038 -14.00257 31081 ft 455 kts 234°
2026-05-06 15:14 34.81872 -14.06095 31083 ft 455 kts 234°
2026-05-06 15:15 34.77701 -14.11921 31087 ft 456 kts 234°
2026-05-06 15:15 34.73550 -14.17708 31089 ft 456 kts 234°
2026-05-06 15:16 34.69364 -14.23520 31070 ft 456 kts 234°
2026-05-06 15:16 34.65176 -14.29333 31052 ft 458 kts 234°
2026-05-06 15:17 34.61006 -14.35126 31066 ft 458 kts 234°
2026-05-06 15:17 34.56795 -14.40957 31078 ft 459 kts 234°
2026-05-06 15:18 34.52612 -14.46756 31081 ft 459 kts 234°
2026-05-06 15:18 34.48395 -14.52576 31092 ft 459 kts 234°
2026-05-06 15:19 34.44189 -14.58362 31066 ft 459 kts 234°
2026-05-06 15:19 34.39960 -14.64175 31069 ft 460 kts 234°
2026-05-06 15:20 34.35752 -14.69974 31072 ft 461 kts 234°
2026-05-06 15:20 34.31504 -14.75807 31070 ft 461 kts 234°
2026-05-06 15:21 34.27245 -14.81623 31087 ft 461 kts 234°
2026-05-06 15:21 34.23009 -14.87403 31085 ft 461 kts 234°
2026-05-06 15:22 34.18751 -14.93219 31089 ft 462 kts 234°
2026-05-06 15:22 34.14472 -14.99053 31068 ft 463 kts 234°
2026-05-06 15:23 34.10206 -15.04841 31076 ft 464 kts 234°
2026-05-06 15:23 34.05902 -15.10676 31082 ft 465 kts 234°
2026-05-06 15:24 34.02326 -15.15529 31073 ft 465 kts 234°
2026-05-06 15:24 33.98012 -15.21370 31080 ft 465 kts 234°
2026-05-06 15:25 33.93718 -15.27160 31093 ft 466 kts 234°
2026-05-06 15:25 33.89400 -15.32983 31010 ft 466 kts 234°
2026-05-06 15:25 33.87238 -15.35898 30761 ft 466 kts 234°
2026-05-06 15:26 33.85070 -15.38815 30521 ft 467 kts 234°
2026-05-06 15:26 33.82901 -15.41733 30288 ft 468 kts 234°
2026-05-06 15:26 33.80753 -15.44622 30022 ft 469 kts 234°
2026-05-06 15:26 33.78570 -15.47559 29742 ft 470 kts 234°
2026-05-06 15:27 33.76382 -15.50497 29470 ft 470 kts 234°
2026-05-06 15:27 33.74199 -15.53422 29176 ft 470 kts 233°
2026-05-06 15:27 33.72017 -15.56344 28904 ft 469 kts 233°
2026-05-06 15:27 33.69830 -15.59268 28634 ft 469 kts 233°
2026-05-06 15:28 33.67672 -15.62148 28371 ft 469 kts 233°
2026-05-06 15:28 33.65493 -15.65058 28083 ft 470 kts 234°
2026-05-06 15:28 33.63305 -15.67979 27380 ft 469 kts 233°
2026-05-06 15:28 33.61125 -15.70885 26652 ft 467 kts 233°
2026-05-06 15:29 33.58954 -15.73780 25924 ft 464 kts 233°
2026-05-06 15:29 33.56797 -15.76655 25224 ft 461 kts 233°
2026-05-06 15:29 33.54631 -15.79491 24545 ft 459 kts 231°
2026-05-06 15:29 33.52430 -15.82194 23872 ft 457 kts 229°
2026-05-06 15:30 33.50155 -15.84852 23128 ft 454 kts 228°
2026-05-06 15:30 33.47867 -15.87451 22489 ft 449 kts 227°
2026-05-06 15:30 33.45596 -15.90015 21859 ft 444 kts 227°
2026-05-06 15:30 33.43391 -15.92526 21263 ft 439 kts 227°
2026-05-06 15:31 33.41204 -15.95049 20701 ft 433 kts 228°
2026-05-06 15:31 33.39051 -15.97563 20142 ft 428 kts 228°
2026-05-06 15:31 33.36934 -16.00053 19596 ft 423 kts 228°
2026-05-06 15:32 33.32797 -16.04908 18607 ft 414 kts 227°
2026-05-06 15:32 33.30739 -16.07312 18076 ft 409 kts 227°
2026-05-06 15:32 33.28709 -16.09676 17590 ft 404 kts 227°
2026-05-06 15:32 33.26729 -16.11981 17113 ft 399 kts 227°
2026-05-06 15:33 33.24748 -16.14284 16611 ft 394 kts 227°
2026-05-06 15:33 33.22795 -16.16556 16128 ft 391 kts 227°
2026-05-06 15:33 33.20844 -16.18823 15620 ft 388 kts 227°
2026-05-06 15:33 33.18914 -16.21066 15122 ft 386 kts 227°
2026-05-06 15:34 33.17029 -16.23252 14609 ft 384 kts 227°
2026-05-06 15:34 33.15137 -16.25445 14088 ft 383 kts 227°
2026-05-06 15:34 33.13227 -16.27660 13493 ft 382 kts 227°
2026-05-06 15:34 33.11319 -16.29868 12953 ft 379 kts 226°
2026-05-06 15:35 33.09423 -16.32060 12394 ft 377 kts 226°
2026-05-06 15:35 33.07559 -16.34214 11840 ft 376 kts 226°
2026-05-06 15:35 33.05689 -16.36377 11262 ft 374 kts 226°
2026-05-06 15:35 33.03829 -16.38529 10894 ft 366 kts 226°
2026-05-06 15:36 33.02035 -16.40598 10763 ft 351 kts 226°
2026-05-06 15:36 33.00310 -16.42583 10645 ft 338 kts 226°
2026-05-06 15:36 32.98648 -16.44496 10531 ft 325 kts 226°
2026-05-06 15:36 32.97070 -16.46313 10401 ft 314 kts 226°
2026-05-06 15:37 32.95524 -16.48089 10269 ft 304 kts 227°